This is the latest recevied weather packets stored in our database for station/object HK6REC-21. If no packets are shown the sender has not sent any weather packets the latest 10 day(s).
| Time | Temp. | Humidity | Pressure | Rain* | Wind** | Luminosity | Snow |
|---|---|---|---|---|---|---|---|
| 1777829607 | 22.22° C | 91% | 1012 hPa | 0 mm | - | - | - |
| 1777828406 | 22.22° C | 90% | 1014 hPa | 0 mm | - | - | - |
| 1777827205 | 22.22° C | 92% | 1013 hPa | 0 mm | - | - | - |
| 1777826004 | 21.67° C | 93% | 1013 hPa | 0 mm | - | - | - |
| 1777824803 | 22.22° C | 93% | 1015 hPa | 0 mm | - | - | - |
| 1777823602 | 21.67° C | 94% | 1014 hPa | 0 mm | - | - | - |
| 1777822401 | 22.22° C | 94% | 1015 hPa | 0 mm | - | - | - |
| 1777821200 | 20° C | 99% | 1016 hPa | 0 mm | - | - | - |
| 1777819999 | 20° C | 10% | - | 0 mm | - | - | - |
| 1777818798 | 20° C | 10% | - | 0 mm | - | - | - |
| 1777817597 | 18.33° C | 95% | 1017 hPa | 0 mm | - | - | - |
| 1777816396 | 17.22° C | 94% | 1016 hPa | 0 mm | - | - | - |
| 1777815195 | 17.22° C | 94% | 1016 hPa | 0 mm | - | - | - |
| 1777813994 | 17.78° C | 94% | 1016 hPa | 0 mm | - | - | - |
| 1777812793 | 17.78° C | 94% | 1016 hPa | 0 mm | - | - | - |
| 1777811593 | 17.78° C | 94% | 1016 hPa | 0 mm | - | - | - |
| 1777810391 | 17.78° C | 94% | 1016 hPa | 0 mm | - | - | - |
| 1777809190 | 17.78° C | 94% | 1016 hPa | 0 mm | - | - | - |
| 1777807989 | 17.78° C | 94% | 1016 hPa | 0 mm | - | - | - |
| 1777806788 | 17.78° C | 94% | 1015 hPa | 0 mm | - | - | - |
| 1777805588 | 17.78° C | 94% | 1015 hPa | 0 mm | - | - | - |
| 1777804386 | 17.78° C | 94% | 1015 hPa | 0 mm | - | - | - |
| 1777803186 | 17.78° C | 94% | 1015 hPa | 0 mm | - | - | - |
| 1777801985 | 18.33° C | 94% | 1014 hPa | 0 mm | - | - | - |
| 1777800784 | 18.89° C | 94% | 1014 hPa | 0 mm | - | - | - |
* Rain latest hour (hover to see other rain measurements)
** Current wind speed in m/s (hover to see current wind gust speed)